TimeMDT,TemperatureF,Dew PointF,Humidity,Sea Level PressureIn,VisibilityMPH,Wind Direction,Wind SpeedMPH,Gust SpeedMPH,PrecipitationIn,Events,Conditions,WindDirDegrees,DateUTC
12:53 AM,77.0,51.1,40,29.84,10.0,South,13.8,-,N/A,,Clear,190,2013-09-06 06:53:00
1:53 AM,77.0,48.0,36,29.83,10.0,SSW,16.1,-,N/A,,Clear,210,2013-09-06 07:53:00
2:53 AM,79.0,43.0,28,29.83,10.0,WSW,17.3,-,N/A,,Clear,250,2013-09-06 08:53:00
3:53 AM,77.0,46.0,33,29.86,10.0,West,10.4,-,N/A,,Clear,260,2013-09-06 09:53:00
4:53 AM,70.0,48.0,46,29.89,10.0,WSW,8.1,-,N/A,,Clear,250,2013-09-06 10:53:00
5:53 AM,68.0,51.1,55,29.90,10.0,West,5.8,-,N/A,,Clear,260,2013-09-06 11:53:00
6:53 AM,68.0,53.1,59,29.94,10.0,West,10.4,-,N/A,,Clear,280,2013-09-06 12:53:00
7:53 AM,73.9,54.0,50,29.95,10.0,Calm,Calm,-,N/A,,Clear,0,2013-09-06 13:53:00
8:53 AM,77.0,57.0,50,29.96,10.0,North,8.1,-,N/A,,Clear,350,2013-09-06 14:53:00
9:53 AM,81.0,55.0,41,29.97,10.0,North,6.9,-,N/A,,Clear,360,2013-09-06 15:53:00
10:53 AM,84.9,54.0,34,29.95,10.0,NNE,8.1,-,N/A,,Clear,20,2013-09-06 16:53:00
11:53 AM,87.1,54.0,32,29.95,10.0,ENE,5.8,-,N/A,,Clear,70,2013-09-06 17:53:00
12:53 PM,91.0,53.1,27,29.94,10.0,ENE,5.8,-,N/A,,Clear,60,2013-09-06 18:53:00
1:53 PM,93.0,50.0,23,29.91,10.0,NNW,8.1,17.3,N/A,,Clear,330,2013-09-06 19:53:00
2:53 PM,91.9,48.0,22,29.89,10.0,NE,6.9,-,N/A,,Clear,40,2013-09-06 20:53:00
3:53 PM,93.0,46.9,20,29.89,10.0,North,8.1,-,N/A,,Clear,10,2013-09-06 21:53:00
4:53 PM,93.0,45.0,19,29.86,10.0,North,5.8,-,N/A,,Clear,360,2013-09-06 22:53:00
5:53 PM,91.9,48.0,22,29.86,10.0,ENE,10.4,-,N/A,,Clear,70,2013-09-06 23:53:00
6:53 PM,84.9,52.0,32,29.86,10.0,ENE,8.1,-,N/A,,Clear,60,2013-09-07 00:53:00
7:38 PM,82.4,51.8,35,30.03,10.0,NE,4.6,-,N/A,Thunderstorm,Clear,50,2013-09-07 01:38:00
7:53 PM,80.1,53.1,39,29.90,10.0,West,21.9,33.4,N/A,Thunderstorm,Thunderstorm,280,2013-09-07 01:53:00
8:03 PM,73.4,57.2,57,30.08,3.0,South,54.1,80.6,N/A,Thunderstorm,Unknown,170,2013-09-07 02:03:00
8:05 PM,68.0,59.0,73,30.05,1.2,SSE,42.6,80.6,N/A,Thunderstorm,Unknown,160,2013-09-07 02:05:00
8:07 PM,64.4,59.0,83,30.08,0.8,SSE,29.9,80.6,0.00,Rain-Thunderstorm,Heavy Thunderstorms and Rain,160,2013-09-07 02:07:00
8:14 PM,71.6,60.8,69,30.11,0.5,North,18.4,58.7,0.57,Rain-Thunderstorm,Heavy Thunderstorms and Rain,350,2013-09-07 02:14:00
8:16 PM,71.6,60.8,69,30.11,0.8,North,-9999.0,-,0.57,Thunderstorm,Unknown,0,2013-09-07 02:16:00
8:20 PM,69.8,59.0,68,30.11,2.0,ENE,20.7,27.6,0.57,Thunderstorm,Unknown,70,2013-09-07 02:20:00
8:28 PM,66.2,59.0,78,30.11,10.0,ENE,17.3,27.6,0.57,Thunderstorm,Thunderstorm,60,2013-09-07 02:28:00
8:53 PM,68.0,59.0,73,29.93,10.0,NW,6.9,-,0.57,Thunderstorm,Mostly Cloudy,320,2013-09-07 02:53:00
9:38 PM,71.6,57.2,60,30.05,10.0,Calm,Calm,-,N/A,,Partly Cloudy,0,2013-09-07 03:38:00
9:53 PM,66.9,61.0,81,29.90,10.0,SSW,6.9,-,N/A,,Clear,210,2013-09-07 03:53:00
10:53 PM,68.0,59.0,73,29.91,10.0,Calm,Calm,-,N/A,,Clear,0,2013-09-07 04:53:00
11:53 PM,68.0,61.0,78,29.91,10.0,Calm,Calm,-,N/A,,Scattered Clouds,0,2013-09-07 05:53:00